Plainview, TX

12:41 AM CDT on March 23, 2017 (GMT -0500)
Hale County

Weather History for KPVW - February, 2014

Change the Weather History Date:

Thursday, February 6, 2014

  Actual Average Record
Temperature  
Mean Temperature 12 °F -  
Max Temperature 19 °F 49 °F 80 °F (2015)
Min Temperature 6 °F 24 °F 1 °F (1989)
Degree Days  
Heating Degree Days 52    
Moisture  
Dew Point 7 °F    
Average Humidity 77    
Maximum Humidity 85    
Minimum Humidity 68    
Precipitation  
Precipitation 0.00 in - - ()
Sea Level Pressure  
Sea Level Pressure 30.28 in    
Wind  
Wind Speed 8 mph (ESE)    
Max Wind Speed 14 mph    
Max Gust Speed -    
Visibility 9 miles    
Events Snow    
Averages and records for this station are not official NWS values.
T = Trace of Precipitation, MM = Missing Value Source: NWS Daily Summary

Daily Weather History Graph

Daily Weather History Graph

Search for Another Location

Airport or City:

Trip Planner

Search our weather history database for the weather conditions in past years. The results will help you decide how hot, cold, wet, or windy it might be!

Date:

Astronomy

Feb. 06, 2014 Rise Set
Actual Time 7:40 AM CST 6:22 PM CST
Civil Twilight 7:14 AM CST 6:48 PM CST
Nautical Twilight 6:44 AM CST 7:17 PM CST
Astronomical Twilight 6:15 AM CST 7:47 PM CST
Moon 11:56 AM CST (2/6) 12:58 AM CST (2/6)
Length of Visible Light 11h 34m
Length of Day
10h 41m
Waxing Crescent, 49% of the Moon is Illuminated
Feb 6
Waxing Crescent
Feb 6
First Quarter
Feb 14
Full
Feb 22
Last Quarter
Mar 1
New

Hourly Weather History & Observations

Time (CST) Temp. Windchill Dew Point Humidity Pressure Visibility Wind Dir Wind Speed Gust Speed Precip Events Conditions
12:15 AM 9.5 °F -4.4 °F 3.9 °F 78% 30.39 in 10.0 mi NNE 10.4 mph - N/A   Overcast
12:35 AM 9.5 °F -3.5 °F 3.9 °F 78% 30.40 in 10.0 mi NNE 9.2 mph - N/A   Overcast
12:55 AM 9.5 °F -1.5 °F 4.1 °F 79% 30.40 in 10.0 mi NNE 6.9 mph - N/A   Overcast
1:15 AM 9.5 °F -1.5 °F 4.1 °F 79% 30.39 in 10.0 mi NNE 6.9 mph - N/A   Overcast
1:35 AM 9.5 °F -2.6 °F 4.1 °F 79% 30.38 in 10.0 mi NNE 8.1 mph - N/A Snow Light Snow
1:55 AM 9.5 °F -5.2 °F 4.1 °F 79% 30.38 in 10.0 mi NNE 11.5 mph - N/A Snow Light Snow
2:15 AM 9.5 °F -3.5 °F 4.1 °F 79% 30.38 in 10.0 mi NNE 9.2 mph - N/A   Overcast
2:35 AM 9.5 °F -3.5 °F 3.9 °F 78% 30.38 in 10.0 mi NNE 9.2 mph - N/A   Overcast
2:55 AM 9.5 °F -4.4 °F 4.1 °F 79% 30.36 in 10.0 mi NNE 10.4 mph - N/A   Overcast
3:15 AM 9.5 °F -4.4 °F 3.9 °F 78% 30.36 in 10.0 mi NE 10.4 mph - N/A   Overcast
3:35 AM 9.5 °F -2.6 °F 4.5 °F 80% 30.36 in 7.0 mi NNE 8.1 mph - N/A Snow Light Snow
3:55 AM 8.4 °F -5.7 °F 3.0 °F 79% 30.35 in 10.0 mi NE 10.4 mph - N/A   Overcast
4:15 AM 7.7 °F -5.8 °F 2.3 °F 79% 30.35 in 7.0 mi NE 9.2 mph - N/A   Overcast
4:35 AM 7.9 °F -6.4 °F 2.7 °F 79% 30.34 in 10.0 mi NE 10.4 mph - N/A   Overcast
4:55 AM 7.3 °F -7.9 °F 1.6 °F 77% 30.34 in 10.0 mi NE 11.5 mph - N/A   Overcast
5:15 AM 7.3 °F -8.6 °F 1.9 °F 79% 30.34 in 10.0 mi NE 12.7 mph - N/A   Overcast
5:35 AM 7.3 °F -7.9 °F 2.1 °F 79% 30.35 in 10.0 mi NE 11.5 mph - N/A   Overcast
5:55 AM 7.3 °F -6.2 °F 1.9 °F 79% 30.36 in 10.0 mi NE 9.2 mph - N/A   Overcast
6:15 AM 7.3 °F -6.2 °F 1.9 °F 79% 30.36 in 10.0 mi NE 9.2 mph - N/A   Overcast
6:35 AM 7.3 °F -6.2 °F 1.9 °F 79% 30.36 in 10.0 mi ENE 9.2 mph - N/A   Overcast
6:55 AM 6.8 °F -6.9 °F 1.2 °F 78% 30.35 in 10.0 mi ENE 9.2 mph - N/A   Overcast
7:15 AM 6.3 °F -6.5 °F 0.9 °F 78% 30.36 in 10.0 mi NE 8.1 mph - N/A Snow Light Snow
7:35 AM 6.3 °F -4.1 °F 1.0 °F 79% 30.37 in 4.0 mi ENE 5.8 mph - N/A Snow Light Snow
7:55 AM 6.1 °F -4.3 °F 0.9 °F 79% 30.37 in 4.0 mi NE 5.8 mph - N/A Snow Light Snow
8:15 AM 6.4 °F -5.2 °F 1.4 °F 80% 30.36 in 5.0 mi NE 6.9 mph - N/A Snow Light Snow
8:35 AM 7.2 °F -3.0 °F 1.9 °F 79% 30.37 in 7.0 mi ENE 5.8 mph - N/A Snow Light Snow
8:55 AM 6.1 °F -5.6 °F 0.9 °F 79% 30.36 in 7.0 mi ENE 6.9 mph - N/A   Mostly Cloudy
9:15 AM 7.3 °F -2.8 °F 1.6 °F 77% 30.37 in 10.0 mi East 5.8 mph - N/A   Scattered Clouds
9:35 AM 7.7 °F 1.0 °F 1.8 °F 77% 30.38 in 10.0 mi NE 3.5 mph - N/A   Scattered Clouds
9:55 AM 9.3 °F 1.0 °F 2.5 °F 74% 30.36 in 10.0 mi NE 4.6 mph - N/A   Scattered Clouds
10:15 AM 9.5 °F 1.2 °F 3.2 °F 76% 30.36 in 10.0 mi ESE 4.6 mph - N/A   Scattered Clouds
10:35 AM 9.5 °F -0.3 °F 3.4 °F 76% 30.36 in 10.0 mi East 5.8 mph - N/A   Mostly Cloudy
10:55 AM 9.5 °F -0.3 °F 3.2 °F 76% 30.36 in 10.0 mi SE 5.8 mph - N/A   Mostly Cloudy
11:15 AM 10.9 °F 1.4 °F 4.5 °F 75% 30.34 in 10.0 mi East 5.8 mph - N/A   Scattered Clouds
11:35 AM 11.7 °F 5.5 °F 5.5 °F 76% 30.34 in 10.0 mi East 3.5 mph - N/A   Scattered Clouds
11:55 AM 14.4 °F 8.6 °F 8.8 °F 79% 30.33 in 10.0 mi ENE 3.5 mph - N/A Snow Light Snow
12:15 PM 14.7 °F - 8.4 °F 76% 30.32 in 3.0 mi Calm Calm - N/A Snow Light Snow
12:35 PM 14.9 °F - 9.0 °F 77% 30.32 in 2.0 mi Calm Calm - N/A Snow Light Snow
12:55 PM 15.3 °F - 8.8 °F 76% 30.30 in 4.0 mi Calm Calm - N/A Snow Light Snow
1:15 PM 17.4 °F 9.1 °F 9.7 °F 72% 30.27 in 7.0 mi South 5.8 mph - N/A Snow Light Snow
1:35 PM 17.4 °F 10.4 °F 9.9 °F 72% 30.26 in 10.0 mi South 4.6 mph - N/A Snow Light Snow
1:55 PM 18.7 °F 10.6 °F 10.2 °F 70% 30.25 in 10.0 mi South 5.8 mph - N/A   Overcast
2:15 PM 19.4 °F 10.4 °F 10.8 °F 69% 30.22 in 10.0 mi South 6.9 mph - N/A   Overcast
2:35 PM 19.0 °F 11.1 °F 10.8 °F 70% 30.23 in 10.0 mi South 5.8 mph - N/A   Overcast
2:55 PM 19.9 °F 10.1 °F 11.1 °F 69% 30.22 in 10.0 mi South 8.1 mph - N/A   Overcast
3:15 PM 19.9 °F 11.1 °F 11.1 °F 69% 30.21 in 10.0 mi South 6.9 mph - N/A   Overcast
3:35 PM 19.9 °F 10.1 °F 10.8 °F 68% 30.19 in 10.0 mi SSE 8.1 mph - N/A   Overcast
3:55 PM 19.9 °F 11.1 °F 11.1 °F 69% 30.20 in 10.0 mi South 6.9 mph - N/A   Overcast
4:15 PM 19.9 °F 9.3 °F 11.8 °F 71% 30.20 in 10.0 mi SSE 9.2 mph - N/A   Overcast
4:35 PM 19.9 °F 8.6 °F 12.0 °F 71% 30.19 in 10.0 mi South 10.4 mph - N/A   Overcast
4:55 PM 19.9 °F 10.1 °F 12.4 °F 72% 30.18 in 10.0 mi South 8.1 mph - N/A   Overcast
5:15 PM 19.9 °F 11.1 °F 12.7 °F 74% 30.19 in 10.0 mi SSE 6.9 mph - N/A   Overcast
5:35 PM 19.9 °F 12.1 °F 12.2 °F 72% 30.18 in 10.0 mi SSE 5.8 mph - N/A   Mostly Cloudy
5:55 PM 19.9 °F 11.1 °F 12.7 °F 74% 30.18 in 10.0 mi South 6.9 mph - N/A   Mostly Cloudy
6:15 PM 19.9 °F 11.1 °F 13.1 °F 75% 30.18 in 10.0 mi SSE 6.9 mph - N/A   Mostly Cloudy
6:35 PM 19.9 °F 10.1 °F 13.3 °F 75% 30.17 in 10.0 mi SSE 8.1 mph - N/A   Mostly Cloudy
6:55 PM 19.4 °F 9.5 °F 13.1 °F 76% 30.17 in 10.0 mi SSE 8.1 mph - N/A   Scattered Clouds
7:15 PM 19.8 °F 9.1 °F 13.6 °F 77% 30.18 in 10.0 mi SSE 9.2 mph - N/A   Clear
7:35 PM 19.4 °F 8.6 °F 13.5 °F 78% 30.17 in 10.0 mi SSE 9.2 mph - N/A   Scattered Clouds
7:55 PM 18.0 °F 6.1 °F 12.2 °F 78% 30.17 in 10.0 mi SSE 10.4 mph - N/A   Scattered Clouds
8:15 PM 18.0 °F 6.1 °F 12.2 °F 78% 30.17 in 10.0 mi SSE 10.4 mph - N/A   Scattered Clouds
8:35 PM 17.6 °F 6.4 °F 12.0 °F 79% 30.19 in 10.0 mi South 9.2 mph - N/A   Clear
8:55 PM 17.4 °F 7.1 °F 12.2 °F 80% 30.18 in 10.0 mi SSE 8.1 mph - N/A   Clear
9:15 PM 17.4 °F 5.4 °F 12.2 °F 80% 30.17 in 10.0 mi SSE 10.4 mph - N/A   Scattered Clouds
9:35 PM 17.2 °F 3.3 °F 12.4 °F 81% 30.16 in 10.0 mi SSE 13.8 mph - N/A   Mostly Cloudy
9:55 PM 16.2 °F 2.5 °F 11.3 °F 81% 30.16 in 10.0 mi South 12.7 mph - N/A   Scattered Clouds
10:15 PM 15.6 °F 2.5 °F 11.1 °F 82% 30.17 in 10.0 mi South 11.5 mph - N/A   Mostly Cloudy
10:35 PM 14.9 °F 0.3 °F 10.4 °F 82% 30.17 in 10.0 mi South 13.8 mph - N/A   Overcast
10:55 PM 14.9 °F 2.3 °F 10.8 °F 84% 30.16 in 10.0 mi SSE 10.4 mph - N/A   Scattered Clouds
11:15 PM 14.9 °F 1.6 °F 10.9 °F 84% 30.15 in 10.0 mi SSE 11.5 mph - N/A   Clear
11:35 PM 14.9 °F 0.9 °F 11.1 °F 85% 30.15 in 10.0 mi SSE 12.7 mph - N/A   Mostly Cloudy
11:55 PM 14.9 °F 2.3 °F 11.1 °F 85% 30.14 in 10.0 mi South 10.4 mph - N/A   Mostly Cloudy